This demonstration page uses our WeatherBlox Daily Observations layout. Learn more.

Left ArrowRight Arrow

34.16533, -84.80231

Hourly Observations for November 29, 2021

Temp ( °F °C ) Dew Point ( °F °C ) Humidity (%) Winds ( mph kmh ) Pressure ( in mb ) Visibility ( mi km ) Precip ( " mm )
12:15 am 00:15 Clear 45 7 28 -2 53 53 Calm 30.11 1020 10 16 0.00 0.00
12:35 am 00:35 Clear 45 7 28 -2 53 53 WNW 3 6 30.11 1020 10 16 0.00 0.00
12:55 am 00:55 Clear 41 5 30 -1 66 66 Calm 30.10 1019 10 16 0.00 0.00
1:15 am 01:15 Clear 39 4 30 -1 70 70 Calm 30.11 1020 10 16 0.00 0.00
1:35 am 01:35 Clear 37 3 30 -1 75 75 Calm 30.11 1020 10 16 0.00 0.00
1:55 am 01:55 Clear 37 3 32 0 81 81 Calm 30.12 1020 10 16 0.00 0.00
2:15 am 02:15 Clear 37 3 30 -1 75 75 Calm 30.11 1020 10 16 0.00 0.00
2:35 am 02:35 Clear 39 4 28 -2 65 65 Calm 30.12 1020 10 16 0.00 0.00
2:55 am 02:55 Clear 39 4 27 -3 61 61 VRB 5 7 30.12 1020 10 16 0.00 0.00
3:15 am 03:15 Clear 41 5 27 -3 57 57 VRB 3 6 30.11 1020 10 16 0.00 0.00
3:35 am 03:35 Clear 41 5 27 -3 57 57 VRB 3 6 30.12 1020 10 16 0.00 0.00
3:55 am 03:55 Clear 39 4 27 -3 61 61 VRB 5 7 30.12 1020 10 16 0.00 0.00
4:15 am 04:15 Clear 39 4 27 -3 61 61 Calm 30.12 1020 10 16 0.00 0.00
4:35 am 04:35 Clear 39 4 27 -3 61 61 Calm 30.13 1020 10 16 0.00 0.00
4:55 am 04:55 Clear 39 4 27 -3 61 61 VRB 3 6 30.14 1021 10 16 0.00 0.00
5:15 am 05:15 Clear 37 3 27 -3 65 65 Calm 30.14 1021 10 16 0.00 0.00
5:35 am 05:35 Clear 37 3 25 -4 60 60 VRB 3 6 30.15 1021 10 16 0.00 0.00
5:55 am 05:55 Clear 37 3 25 -4 60 60 W 5 7 30.16 1021 10 16 0.00 0.00
6:15 am 06:15 Clear 37 3 25 -4 60 60 WNW 5 7 30.16 1021 10 16 0.00 0.00
6:35 am 06:35 Clear 36 2 23 -5 60 60 WNW 7 11 30.17 1022 10 16 0.00 0.00
6:55 am 06:55 Clear 36 2 25 -4 65 65 W 6 9 30.17 1022 10 16 0.00 0.00
7:15 am 07:15 Clear 36 2 25 -4 65 65 W 7 11 30.18 1022 10 16 0.00 0.00
7:35 am 07:35 Sunny 34 1 23 -5 65 65 WNW 8 13 30.19 1022 10 16 0.00 0.00
7:55 am 07:55 Sunny 36 2 23 -5 60 60 WNW 9 15 30.19 1022 10 16 0.00 0.00
8:15 am 08:15 Sunny 36 2 23 -5 60 60 WNW 8 13 30.19 1022 10 16 0.00 0.00
8:35 am 08:35 Sunny 36 2 21 -6 56 56 VRB 6 9 30.20 1023 10 16 0.00 0.00
8:55 am 08:55 Sunny 37 3 21 -6 52 52 VRB 7 11 30.20 1023 10 16 0.00 0.00
9:15 am 09:15 Sunny 37 3 23 -5 56 56 VRB 5 7 30.21 1023 10 16 0.00 0.00
9:35 am 09:35 Sunny 39 4 23 -5 52 52 VRB 7 11 30.22 1023 10 16 0.00 0.00
9:55 am 09:55 Sunny 39 4 21 -6 48 48 VRB 7 11 30.21 1023 10 16 0.00 0.00
10:15 am 10:15 Sunny 41 5 21 -6 45 45 VRB 3 6 30.20 1023 10 16 0.00 0.00
10:35 am 10:35 Sunny 41 5 21 -6 45 45 VRB 6 9 30.20 1023 10 16 0.00 0.00
10:55 am 10:55 Sunny 43 6 19 -7 39 39 VRB 6 9 30.20 1023 10 16 0.00 0.00
11:15 am 11:15 Sunny 43 6 18 -8 36 36 VRB 7 11 30.20 1023 10 16 0.00 0.00
11:35 am 11:35 Sunny 45 7 18 -8 34 34 NNW 8 13 30.20 1023 10 16 0.00 0.00
11:55 am 11:55 Sunny 45 7 18 -8 34 34 VRB 7 11 30.20 1023 10 16 0.00 0.00
12:15 pm 12:15 Sunny 46 8 18 -8 32 32 VRB 7 11 30.19 1022 10 16 0.00 0.00
12:35 pm 12:35 Sunny 46 8 16 -9 29 29 W 9 15 30.18 1022 10 16 0.00 0.00
12:55 pm 12:55 Sunny 46 8 16 -9 29 29 VRB 5 7 30.18 1022 10 16 0.00 0.00
1:15 pm 13:15 Sunny 48 9 16 -9 27 27 NNW 8 13 30.16 1021 10 16 0.00 0.00
1:35 pm 13:35 Sunny 48 9 14 -10 25 25 VRB 7 11 30.15 1021 10 16 0.00 0.00
1:55 pm 13:55 Sunny 48 9 16 -9 27 27 NNW 8 13 30.15 1021 10 16 0.00 0.00
2:15 pm 14:15 Sunny 48 9 14 -10 25 25 VRB 7 11 30.15 1021 10 16 0.00 0.00
2:35 pm 14:35 Sunny 50 10 16 -9 25 25 N 9 15 30.14 1021 10 16 0.00 0.00
2:55 pm 14:55 Sunny 50 10 16 -9 25 25 VRB 7 11 30.14 1021 10 16 0.00 0.00
3:15 pm 15:15 Sunny 50 10 16 -9 25 25 VRB 7 11 30.15 1021 10 16 0.00 0.00
3:35 pm 15:35 Sunny 50 10 16 -9 25 25 VRB 5 7 30.15 1021 10 16 0.00 0.00
3:55 pm 15:55 Sunny 50 10 16 -9 25 25 VRB 7 11 30.15 1021 10 16 0.00 0.00
4:15 pm 16:15 Sunny 50 10 14 -10 24 24 VRB 7 11 30.15 1021 10 16 0.00 0.00
4:35 pm 16:35 Sunny 50 10 14 -10 24 24 VRB 7 11 30.15 1021 10 16 0.00 0.00
4:55 pm 16:55 Sunny 48 9 16 -9 27 27 VRB 5 7 30.15 1021 10 16 0.00 0.00
5:15 pm 17:15 Sunny 48 9 18 -8 29 29 VRB 3 6 30.15 1021 10 16 0.00 0.00
5:35 pm 17:35 Clear 46 8 19 -7 34 34 Calm 30.16 1021 10 16 0.00 0.00
5:55 pm 17:55 Clear 46 8 19 -7 34 34 VRB 5 7 30.16 1021 10 16 0.00 0.00
6:15 pm 18:15 Clear 45 7 19 -7 37 37 Calm 30.18 1022 10 16 0.00 0.00
6:35 pm 18:35 Clear 45 7 18 -8 34 34 Calm 30.17 1022 10 16 0.00 0.00
6:55 pm 18:55 Clear 43 6 19 -7 39 39 Calm 30.17 1022 10 16 0.00 0.00
7:15 pm 19:15 Clear 43 6 19 -7 39 39 Calm 30.18 1022 10 16 0.00 0.00
7:35 pm 19:35 Clear 41 5 21 -6 45 45 Calm 30.17 1022 10 16 0.00 0.00
7:55 pm 19:55 Clear 37 3 21 -6 52 52 Calm 30.18 1022 9 14 0.00 0.00
8:15 pm 20:15 Clear 37 3 23 -5 56 56 Calm 30.18 1022 10 16 0.00 0.00
8:35 pm 20:35 Clear 36 2 23 -5 60 60 Calm 30.18 1022 10 16 0.00 0.00
8:55 pm 20:55 Clear 36 2 27 -3 70 70 Calm 30.18 1022 10 16 0.00 0.00
9:15 pm 21:15 Clear 34 1 28 -2 81 81 Calm 30.20 1023 10 16 0.00 0.00
9:35 pm 21:35 Clear 34 1 28 -2 81 81 Calm 30.20 1023 10 16 0.00 0.00
9:55 pm 21:55 Clear 34 1 27 -3 75 75 Calm 30.20 1023 10 16 0.00 0.00
10:15 pm 22:15 Clear 34 1 27 -3 75 75 Calm 30.20 1023 10 16 0.00 0.00
10:35 pm 22:35 Clear 32 0 27 -3 80 80 Calm 30.19 1022 10 16 0.00 0.00
10:55 pm 22:55 Clear 32 0 27 -3 80 80 Calm 30.19 1022 10 16 0.00 0.00
11:15 pm 23:15 Clear 32 0 27 -3 80 80 Calm 30.20 1023 10 16 0.00 0.00
11:35 pm 23:35 Clear 32 0 25 -4 75 75 Calm 30.20 1023 10 16 0.00 0.00
11:55 pm 23:55 Clear 32 0 25 -4 75 75 Calm 30.20 1023 10 16 0.00 0.00

Powered by AerisWeather